When you browse on this site, cookies collect data to enhance your experience and personalize the content and advertising you see.
Visit our Privacy Policy to learn more. By continuing to use the site, you agree to this use of cookies and data.
  • In Austria
  • List of Countries
  • For 7 days
  • Water Temperature
  • Weather Map
  • News
  • Weather Widgets
  • user-avatar
    Login

    Hourly Weather Zastav'je

    Today, 19 August, Monday

    Time Temperature Precipitation Wind Pressure Humidity
    00:00 +19°C° 0 mm 3 mps 744 mmHg 82%
    01:00 +18°C° 0 mm 3 mps 744 mmHg 83%
    02:00 +18°C° 0 mm 3 mps 744 mmHg 84%
    03:00 +18°C° 0 mm 3 mps 744 mmHg 83%
    04:00 +18°C° 0 mm 3 mps 744 mmHg 81%
    05:00 +18°C° 0 mm 3 mps 744 mmHg 80%
    06:00 +19°C° 0 mm 3 mps 745 mmHg 78%
    07:00 +20°C° 0 mm 3 mps 745 mmHg 76%
    08:00 +21°C° 0 mm 3 mps 745 mmHg 74%
    09:00 +24°C° 0 mm 3 mps 745 mmHg 70%
    10:00 +26°C° 0 mm 3 mps 745 mmHg 66%
    11:00 +28°C° 0 mm 4 mps 746 mmHg 63%
    12:00 +29°C° 0 mm 4 mps 746 mmHg 60%
    13:00 +30°C° 0 mm 4 mps 746 mmHg 57%
    14:00 +32°C° 0 mm 4 mps 746 mmHg 54%
    15:00 +31°C° 0 mm 3 mps 746 mmHg 56%
    16:00 +31°C° 0 mm 3 mps 746 mmHg 57%
    17:00 +31°C° 0 mm 2 mps 746 mmHg 58%
    18:00 +29°C° 0 mm 3 mps 746 mmHg 64%
    19:00 +27°C° 0 mm 3 mps 746 mmHg 70%
    20:00 +25°C° 0 mm 3 mps 746 mmHg 76%
    21:00 +24°C° 0.2 mm 3 mps 746 mmHg 78%
    22:00 +24°C° 0.2 mm 3 mps 746 mmHg 81%
    23:00 +22°C° 0.2 mm 3 mps 747 mmHg 83%

    Tomorrow, 20 August, Tuesday

    Time Temperature Precipitation Wind Pressure Humidity
    00:00 +21°C° 0.2 mm 3 mps 747 mmHg 86%
    01:00 +20°C° 0.2 mm 3 mps 747 mmHg 90%
    02:00 +20°C° 0.2 mm 2 mps 747 mmHg 93%
    03:00 +20°C° 0 mm 2 mps 748 mmHg 95%
    04:00 +19°C° 0 mm 2 mps 748 mmHg 96%
    05:00 +19°C° 0 mm 2 mps 748 mmHg 97%
    06:00 +20°C° 0 mm 3 mps 748 mmHg 94%
    07:00 +21°C° 0 mm 3 mps 749 mmHg 91%
    08:00 +22°C° 0 mm 3 mps 749 mmHg 88%
    09:00 +24°C° 0 mm 3 mps 749 mmHg 80%
    10:00 +25°C° 0 mm 3 mps 750 mmHg 72%
    11:00 +27°C° 0 mm 3 mps 750 mmHg 64%
    12:00 +27°C° 0 mm 2 mps 750 mmHg 61%
    13:00 +28°C° 0 mm 2 mps 750 mmHg 58%
    14:00 +29°C° 0 mm 2 mps 750 mmHg 56%
    15:00 +28°C° 0 mm 2 mps 750 mmHg 58%
    16:00 +28°C° 0 mm 2 mps 750 mmHg 59%
    17:00 +28°C° 0 mm 2 mps 749 mmHg 61%
    18:00 +26°C° 0 mm 2 mps 749 mmHg 69%
    19:00 +25°C° 0 mm 2 mps 750 mmHg 76%
    20:00 +23°C° 0 mm 2 mps 750 mmHg 84%
    21:00 +21°C° 0 mm 2 mps 750 mmHg 86%
    22:00 +21°C° 0 mm 2 mps 750 mmHg 87%
    23:00 +20°C° 0 mm 2 mps 750 mmHg 89%

    Day after tomorrow, 21 August, Wednesday

    Time Temperature Precipitation Wind Pressure Humidity
    00:00 +20°C° 0.2 mm 2 mps 749 mmHg 91%
    01:00 +20°C° 0.2 mm 3 mps 749 mmHg 93%
    02:00 +19°C° 0.2 mm 3 mps 749 mmHg 94%
    03:00 +19°C° 0.5 mm 3 mps 749 mmHg 95%
    04:00 +19°C° 0.5 mm 3 mps 749 mmHg 96%
    05:00 +19°C° 0.5 mm 3 mps 748 mmHg 97%
    06:00 +20°C° 0.1 mm 3 mps 748 mmHg 93%
    07:00 +21°C° 0.1 mm 3 mps 749 mmHg 89%
    08:00 +22°C° 0.1 mm 3 mps 749 mmHg 85%
    09:00 +25°C° 0 mm 3 mps 749 mmHg 76%
    10:00 +26°C° 0 mm 3 mps 749 mmHg 68%
    11:00 +28°C° 0 mm 3 mps 749 mmHg 59%
    12:00 +28°C° 0 mm 3 mps 748 mmHg 61%
    13:00 +28°C° 0 mm 3 mps 748 mmHg 63%
    14:00 +28°C° 0 mm 3 mps 748 mmHg 65%
    15:00 +28°C° 0.6 mm 3 mps 748 mmHg 68%
    16:00 +28°C° 0.6 mm 3 mps 748 mmHg 71%
    17:00 +27°C° 0.6 mm 3 mps 748 mmHg 73%
    18:00 +26°C° 0 mm 3 mps 749 mmHg 79%
    19:00 +25°C° 0 mm 3 mps 749 mmHg 85%
    20:00 +23°C° 0 mm 2 mps 749 mmHg 91%
    21:00 +22°C° 0.1 mm 3 mps 749 mmHg 93%
    22:00 +21°C° 0.1 mm 3 mps 749 mmHg 95%
    23:00 +20°C° 0.1 mm 3 mps 750 mmHg 97%

    22 August, Thursday

    Time Temperature Precipitation Wind Pressure Humidity
    00:00 +19°C° 0 mm 3 mps 750 mmHg 96%
    01:00 +19°C° 0 mm 3 mps 750 mmHg 95%
    02:00 +19°C° 0 mm 4 mps 750 mmHg 94%
    03:00 +18°C° 0 mm 3 mps 750 mmHg 94%
    04:00 +18°C° 0 mm 3 mps 750 mmHg 94%
    05:00 +18°C° 0 mm 3 mps 750 mmHg 94%
    06:00 +18°C° 0.2 mm 3 mps 750 mmHg 94%
    07:00 +18°C° 0.2 mm 3 mps 750 mmHg 93%
    08:00 +19°C° 0.2 mm 3 mps 750 mmHg 92%
    09:00 +19°C° 0.1 mm 3 mps 751 mmHg 91%
    10:00 +19°C° 0.1 mm 2 mps 751 mmHg 89%
    11:00 +20°C° 0.1 mm 2 mps 751 mmHg 87%
    12:00 +20°C° 0 mm 2 mps 751 mmHg 85%
    13:00 +21°C° 0 mm 2 mps 751 mmHg 83%
    14:00 +21°C° 0 mm 2 mps 751 mmHg 81%
    15:00 +21°C° 0 mm 2 mps 751 mmHg 81%
    16:00 +21°C° 0 mm 2 mps 750 mmHg 82%
    17:00 +21°C° 0 mm 2 mps 750 mmHg 82%
    18:00 +21°C° 0 mm 2 mps 750 mmHg 83%
    19:00 +20°C° 0 mm 2 mps 751 mmHg 85%
    20:00 +21°C° 0 mm 1 mps 751 mmHg 86%
    21:00 +21°C° 0 mm 1 mps 751 mmHg 86%
    22:00 +21°C° 0 mm 1 mps 751 mmHg 87%
    23:00 +20°C° 0 mm 1 mps 751 mmHg 87%

    23 August, Friday

    Time Temperature Precipitation Wind Pressure Humidity
    00:00 +20°C° 0.1 mm 1 mps 751 mmHg 89%
    01:00 +19°C° 0.1 mm 2 mps 751 mmHg 90%
    02:00 +19°C° 0.1 mm 2 mps 751 mmHg 91%
    03:00 +19°C° 0.1 mm 2 mps 751 mmHg 92%
    04:00 +19°C° 0.1 mm 2 mps 751 mmHg 93%
    05:00 +18°C° 0.1 mm 2 mps 751 mmHg 94%
    06:00 +18°C° 0.1 mm 3 mps 752 mmHg 93%
    07:00 +18°C° 0.1 mm 3 mps 752 mmHg 93%
    08:00 +18°C° 0.1 mm 3 mps 752 mmHg 92%
    09:00 +19°C° 0 mm 3 mps 752 mmHg 88%
    10:00 +19°C° 0 mm 3 mps 753 mmHg 85%
    11:00 +20°C° 0 mm 3 mps 753 mmHg 81%
    12:00 +21°C° 0 mm 3 mps 753 mmHg 75%
    13:00 +23°C° 0 mm 4 mps 753 mmHg 68%
    14:00 +25°C° 0 mm 4 mps 753 mmHg 62%
    15:00 +25°C° 0 mm 4 mps 753 mmHg 63%
    16:00 +25°C° 0 mm 4 mps 753 mmHg 63%
    17:00 +25°C° 0 mm 4 mps 753 mmHg 64%
    18:00 +22°C° 0 mm 4 mps 753 mmHg 70%
    19:00 +20°C° 0 mm 3 mps 753 mmHg 77%
    20:00 +19°C° 0 mm 3 mps 753 mmHg 83%
    21:00 +18°C° 0 mm 3 mps 753 mmHg 85%
    22:00 +17°C° 0 mm 3 mps 753 mmHg 88%
    23:00 +16°C° 0 mm 3 mps 753 mmHg 90%

    24 August, Saturday

    Time Temperature Precipitation Wind Pressure Humidity
    00:00 +16°C° 0 mm 3 mps 753 mmHg 91%
    01:00 +14°C° 0 mm 3 mps 753 mmHg 92%
    02:00 +14°C° 0 mm 3 mps 753 mmHg 93%
    03:00 +14°C° 0 mm 3 mps 753 mmHg 94%
    04:00 +14°C° 0 mm 3 mps 753 mmHg 94%
    05:00 +13°C° 0 mm 3 mps 753 mmHg 95%
    06:00 +15°C° 0 mm 4 mps 753 mmHg 90%
    07:00 +17°C° 0 mm 4 mps 753 mmHg 86%
    08:00 +18°C° 0 mm 4 mps 753 mmHg 81%
    09:00 +20°C° 0 mm 5 mps 753 mmHg 74%
    10:00 +21°C° 0 mm 5 mps 753 mmHg 67%
    11:00 +23°C° 0 mm 5 mps 753 mmHg 60%
    12:00 +23°C° 0 mm 5 mps 753 mmHg 58%
    13:00 +25°C° 0 mm 5 mps 753 mmHg 55%
    14:00 +26°C° 0 mm 5 mps 753 mmHg 52%
    15:00 +25°C° 0 mm 5 mps 752 mmHg 54%
    16:00 +25°C° 0 mm 4 mps 752 mmHg 56%
    17:00 +25°C° 0 mm 4 mps 752 mmHg 58%
    18:00 +22°C° 0 mm 4 mps 752 mmHg 63%
    19:00 +21°C° 0 mm 4 mps 752 mmHg 67%
    20:00 +19°C° 0 mm 4 mps 751 mmHg 72%
    21:00 +19°C° 0 mm 4 mps 751 mmHg 71%
    22:00 +18°C° 0 mm 4 mps 751 mmHg 71%
    23:00 +17°C° 0 mm 5 mps 751 mmHg 71%
    Show more